Location: Newark
(45.9456°N, 15.4064°E)
Time: 01:25:25
(UTC+00:00)

Transit 2A Rocket - Pass Details

Date: 29 January 2020
Orbit: 591 x 912 km, 66.7° (Epoch: 25 February)

Event Time Altitude Azimuth Distance (km) Brightness Sun altitude
Exits shadow 03:09:41 17° 47° (NE) 1,520 7.0 -33.9°
Drops below altitude 10° 03:10:49 10° 42° (NE) 1,951 7.6 -33.7°
Sets 03:13:08 0° 38° (NE) 2,883 8.6 -33.3°
